Regional Weather Roundup
Issued by NWS Cleveland, OH

Home | Current Version | Previous Version | Graphics & Text | Print | Product List | Glossary On
Versions: 1 2 3 4 5 6 7 8 9 10 11 12 13 14 15 16 17 18 19 20 21 22 23 24 25 26 27 28 29 30 31 32 33 34 35 36 37 38 39 40 41 42 43 44 45 46 47 48 49 50
000
ASUS41 KCLE 221710
RWRCLE
OHIO REGIONAL WEATHER ROUNDUP
NATIONAL WEATHER SERVICE WILMINGTON, OH
1200 PM EST SAT NOV 22 2014

NOTE: "FAIR" INDICATES FEW OR NO CLOUDS BELOW 12,000 FEET WITH NO
SIGNIFICANT WEATHER AND/OR OBSTRUCTIONS TO VISIBILITY.

OHZ001>008-015>018-024>027-034-035-043-044-221800-
   NORTHWEST OHIO

CITY           SKY/WX    TMP DP  RH WIND       PRES   REMARKS
DEFIANCE       CLOUDY    44  38  79 SW12      30.08F
FINDLAY        CLOUDY    45  38  76 S14G23    30.10F
TOLEDO EXPRESS CLOUDY    41  37  86 SW10      30.07F
TOLEDO METCALF CLOUDY    43  37  79 SW14      30.09F
LIMA           CLOUDY    45  37  73 SW18G29   30.11F
$$

OHZ009>014-019>023-028>033-038-089-221800-
   NORTHEAST OHIO

CITY           SKY/WX    TMP DP  RH WIND       PRES   REMARKS
CLE-HOPKINS    CLOUDY    38  34  85 S14       30.15F
CLE-LAKEFRONT  CLOUDY    41  36  82 S22G36    30.10F
CUY CO. ARPT   CLOUDY    43  34  70 SW16G23   30.12F
LORAIN-ELYRIA  CLOUDY    40  37  89 SW13      30.12F
ASHTABULA      CLOUDY    34  31  88 S13       30.13F WCI  25
AKRON-CANTON   LGT RAIN  35  32  88 SW15      30.18F FOG     WCI  25
WOOSTER        CLOUDY   N/A N/A N/A SW15      30.18F
MANSFIELD      CLOUDY    41  38  89 S17G25    30.15F
YOUNGSTOWN     LGT RAIN  34  32  92 S10       30.16F FOG     WCI  26
$$

OHZ042-051>053-060>062-070>072-077>081-221800-
  SOUTHWEST OHIO

CITY           SKY/WX    TMP DP  RH WIND       PRES   REMARKS
CINC-COVINGTON PTSUNNY   53  33  46 S14G24    30.22F
CINC-LUNKEN    PTSUNNY   49  38  65 SW3       30.24F
HAMILTON       CLOUDY    50  39  66 VRB3      30.22F
DAYTON         CLOUDY    43  34  70 SW16      30.19F
WRIGHT-PAT AFB PTSUNNY   44  36  72 SW14      30.19F
DAYTON GENERAL CLOUDY    43  35  73 S12       30.20F
WILMINGTON     CLOUDY    44  32  62 S9        30.22F
$$

OHZ036-037-039>041-045>050-054>059-063>069-073>076-082>088-221800-
  CENTRAL AND SOUTHEAST OHIO

CITY           SKY/WX    TMP DP  RH WIND       PRES   REMARKS
COLUMBUS       CLOUDY    37  30  75 SE3       30.22F
OSU AIRPORT    CLOUDY    37  31  78 S9        30.21F
BOLTON FIELD   CLOUDY    37  32  81 S8        30.22F
RICKENBACK AFB CLOUDY    36  30  80 S7        30.23F
NEWARK         CLOUDY    36  30  79 S8        30.22F
MARION         CLOUDY    39  33  79 S15G23    30.16F
LANCASTER      CLOUDY    41  31  67 S6        30.24F
ZANESVILLE     CLOUDY    34  28  79 S7        30.25F WCI  28
NEW PHILLY     CLOUDY    34  31  88 SE5       30.25F WCI  30
$$


USA.gov is the U.S. government's official web portal to all federal, state and local government web resources and services.